Overview Statistics Trail Chart Weather Telemetry Raw packets
 

This is the latest recevied weather packets stored in our database for station/object KB1MS. If no packets are shown the sender has not sent any weather packets the latest 10 day(s).

<< 102 103 104 105 106 107 108 >>
Time Temp. Humidity Pressure Rain* Wind** Luminosity Snow
1787839542 23.89° C 78% 1018 hPa 0 mm - 215 W/m² -
1787839242 23.89° C 79% 1018 hPa 0 mm - 246 W/m² -
1787838942 23.33° C 80% 1017.9 hPa 0 mm - 216 W/m² -
1787838641 23.33° C 81% 1017.8 hPa 0 mm - 169 W/m² -
1787838340 23.33° C 81% 1017.9 hPa 0 mm - 220 W/m² -
1787838040 23.33° C 81% 1017.7 hPa 0 mm - 99 W/m² -
1787837739 23.33° C 81% 1017.8 hPa 0 mm - 197 W/m² -
1787837434 22.78° C 82% 1017.9 hPa 0 mm - 206 W/m² -
1787837129 22.22° C 82% 1017.9 hPa 0 mm - 162 W/m² -
1787836829 22.22° C 82% 1017.6 hPa 0 mm - 191 W/m² -
1787836527 22.22° C 83% 1017.8 hPa 0 mm - 180 W/m² -
1787836219 22.22° C 84% 1017.8 hPa 0 mm - 153 W/m² -
1787835915 21.67° C 84% 1017.6 hPa 0 mm - 188 W/m² -
1787835614 21.67° C 85% 1017.7 hPa 0 mm - 191 W/m² -
1787835310 21.11° C 85% 1017.5 hPa 0 mm - 149 W/m² -
1787835009 21.11° C 86% 1017.5 hPa 0 mm - 106 W/m² -
1787834708 21.11° C 86% 1017.5 hPa 0 mm - 90 W/m² -
1787834403 20.56° C 86% 1017.5 hPa 0 mm - 157 W/m² -
1787834099 20.56° C 87% 1017.8 hPa 0 mm - 119 W/m² -
1787833794 20° C 88% 1017.6 hPa 0 mm - 160 W/m² -
1787833489 20° C 88% 1017.6 hPa 0 mm - 111 W/m² -
1787833185 20° C 89% 1017.8 hPa 0 mm - 80 W/m² -
1787832881 19.44° C 89% 1017.8 hPa 0 mm - 101 W/m² -
1787832576 19.44° C 90% 1017.9 hPa 0 mm - 75 W/m² -
1787832275 19.44° C 91% 1017.8 hPa 0 mm - 68 W/m² -

* Rain latest hour (hover to see other rain measurements)
** Current wind speed in m/s (hover to see current wind gust speed)